Hutchinson, MN

8:36 PM CST on December 16, 2017 (GMT -0600)
Hutchinson Municipal-Butler

Weather History for KHCD - March, 2012

Change the Weather History Date:

Sunday, March 4, 2012

  Actual Average Record
Temperature  
Mean Temperature 12 °F -  
Max Temperature 24 °F 34 °F 68 °F (1983)
Min Temperature 0 °F 16 °F -15 °F (1978)
Degree Days  
Heating Degree Days 53    
Moisture  
Dew Point 7 °F    
Average Humidity 81    
Maximum Humidity 88    
Minimum Humidity 68    
Precipitation  
Precipitation 0.00 in - - ()
Sea Level Pressure  
Sea Level Pressure 29.90 in    
Wind  
Wind Speed 5 mph (West)    
Max Wind Speed 10 mph    
Max Gust Speed -    
Visibility 10 miles    
Events Snow    
Averages and records for this station are not official NWS values.
T = Trace of Precipitation, MM = Missing Value Source: NWS Daily Summary

Daily Weather History Graph

Daily Weather History Graph

Search for Another Location

Airport or City:

Trip Planner

Search our weather history database for the weather conditions in past years. The results will help you decide how hot, cold, wet, or windy it might be!

Date:

Astronomy

Mar. 04, 2012 Rise Set
Actual Time 6:49 AM CST 6:09 PM CST
Civil Twilight 6:19 AM CST 6:39 PM CST
Nautical Twilight 5:45 AM CST 7:13 PM CST
Astronomical Twilight 5:11 AM CST 7:47 PM CST
Moon 2:14 PM CST (3/4) 4:18 AM CST (3/4)
Length of Visible Light 12h 19m
Length of Day
11h 20m
Waxing Gibbous, 84% of the Moon is Illuminated
Mar 4
Waxing Gibbous
Mar 8
Full
Mar 14
Last Quarter
Mar 22
New
Mar 30
First Quarter

Hourly Weather History & Observations

Time (CST) Temp. Windchill Dew Point Humidity Pressure Visibility Wind Dir Wind Speed Gust Speed Precip Events Conditions
12:13 AM 6.8 °F -4.8 °F 3.6 °F 87% 29.87 in 10.0 mi West 6.9 mph - N/A   Clear
12:32 AM 6.8 °F -3.5 °F 3.6 °F 87% 29.86 in 10.0 mi West 5.8 mph - N/A   Clear
12:52 AM 6.8 °F -4.8 °F 3.7 °F 87% 29.87 in 10.0 mi West 6.9 mph - N/A   Clear
1:12 AM 6.8 °F -4.8 °F 3.7 °F 87% 29.87 in 10.0 mi West 6.9 mph - N/A   Clear
1:33 AM 6.3 °F -4.1 °F 2.7 °F 85% 29.86 in 10.0 mi NW 5.8 mph - N/A   Clear
1:52 AM 6.8 °F -0.1 °F 3.7 °F 87% 29.86 in 10.0 mi WNW 3.5 mph - N/A   Clear
2:12 AM 4.8 °F -2.3 °F 1.6 °F 86% 29.86 in 10.0 mi WNW 3.5 mph - N/A   Clear
2:33 AM 3.6 °F -7.3 °F 0.3 °F 86% 29.86 in 10.0 mi West 5.8 mph - N/A   Clear
2:52 AM 3.6 °F -8.7 °F 0.1 °F 86% 29.86 in 10.0 mi West 6.9 mph - N/A   Clear
3:12 AM 3.2 °F -6.2 °F -0.0 °F 86% 29.86 in 10.0 mi WSW 4.6 mph - N/A   Clear
3:32 AM 3.0 °F - -0.4 °F 86% 29.85 in 10.0 mi Calm Calm - N/A   Clear
3:52 AM 2.3 °F -5.2 °F -1.3 °F 85% 29.86 in 10.0 mi WNW 3.5 mph - N/A   Clear
4:13 AM 2.3 °F -5.2 °F -1.1 °F 86% 29.86 in 10.0 mi West 3.5 mph - N/A   Clear
4:32 AM 1.8 °F -5.8 °F -2.0 °F 84% 29.85 in 10.0 mi West 3.5 mph - N/A   Clear
4:52 AM 1.4 °F -9.9 °F -2.2 °F 85% 29.86 in 10.0 mi West 5.8 mph - N/A   Clear
5:13 AM 1.9 °F -5.6 °F -1.8 °F 84% 29.86 in 10.0 mi West 3.5 mph - N/A   Clear
5:32 AM 0.5 °F -9.3 °F -3.3 °F 84% 29.87 in 10.0 mi WSW 4.6 mph - N/A   Clear
5:53 AM 1.9 °F -5.6 °F -1.8 °F 84% 29.87 in 4.0 mi WNW 3.5 mph - N/A Snow Light Snow
6:12 AM 2.7 °F - -0.9 °F 85% 29.87 in 5.0 mi Calm Calm - N/A Snow Light Snow
6:32 AM 3.2 °F - -0.4 °F 85% 29.86 in 10.0 mi Calm Calm - N/A   Mostly Cloudy
6:52 AM 3.4 °F - -0.2 °F 85% 29.86 in 10.0 mi Calm Calm - N/A   Scattered Clouds
7:12 AM 4.3 °F - 0.9 °F 86% 29.87 in 10.0 mi Calm Calm - N/A   Scattered Clouds
7:33 AM 6.8 °F - 3.6 °F 87% 29.88 in 10.0 mi Calm Calm - N/A   Mostly Cloudy
7:52 AM 6.8 °F - 3.7 °F 87% 29.88 in 10.0 mi Calm Calm - N/A   Overcast
8:12 AM 9.5 °F 3.0 °F 6.4 °F 87% 29.87 in 10.0 mi NW 3.5 mph - N/A   Mostly Cloudy
8:32 AM 9.5 °F 3.0 °F 6.6 °F 88% 29.88 in 10.0 mi NW 3.5 mph - N/A   Mostly Cloudy
8:52 AM 12.0 °F - 9.0 °F 88% 29.88 in 10.0 mi Calm Calm - N/A   Mostly Cloudy
9:13 AM 12.0 °F - 9.1 °F 88% 29.87 in 10.0 mi Calm Calm - N/A   Overcast
9:32 AM 14.5 °F 8.8 °F 10.9 °F 86% 29.87 in 10.0 mi East 3.5 mph - N/A   Overcast
9:53 AM 14.5 °F - 8.8 °F 78% 29.87 in 10.0 mi Calm Calm - N/A   Mostly Cloudy
10:13 AM 14.5 °F 7.1 °F 8.8 °F 78% 29.86 in 10.0 mi East 4.6 mph - N/A   Overcast
10:32 AM 14.9 °F 9.2 °F 8.8 °F 77% 29.86 in 10.0 mi ESE 3.5 mph - N/A   Overcast
10:52 AM 15.8 °F 10.2 °F 9.9 °F 77% 29.86 in 10.0 mi ESE 3.5 mph - N/A   Overcast
11:13 AM 17.1 °F - 10.9 °F 77% 29.87 in 5.0 mi Calm Calm - N/A Snow Light Snow
11:32 AM 17.1 °F - 10.6 °F 76% 29.88 in 10.0 mi Calm Calm - N/A   Scattered Clouds
11:52 AM 19.2 °F - 12.6 °F 75% 29.88 in 10.0 mi Calm Calm - N/A   Mostly Cloudy
12:13 PM 19.4 °F - 12.2 °F 74% 29.89 in 10.0 mi Calm Calm - N/A   Overcast
12:33 PM 19.4 °F - 11.8 °F 72% 29.89 in 10.0 mi Calm Calm - N/A   Overcast
12:52 PM 19.6 °F - 11.3 °F 70% 29.89 in 10.0 mi Calm Calm - N/A   Overcast
1:12 PM 20.8 °F - 12.0 °F 69% 29.90 in 10.0 mi Calm Calm - N/A   Overcast
1:33 PM 21.7 °F 14.3 °F 13.5 °F 70% 29.92 in 10.0 mi West 5.8 mph - N/A   Overcast
1:53 PM 22.5 °F 13.2 °F 13.6 °F 69% 29.92 in 10.0 mi West 8.1 mph - N/A   Mostly Cloudy
2:12 PM 22.5 °F 14.1 °F 13.5 °F 68% 29.93 in 10.0 mi WNW 6.9 mph - N/A   Scattered Clouds
2:32 PM 22.6 °F 12.6 °F 14.2 °F 70% 29.93 in 10.0 mi West 9.2 mph - N/A   Mostly Cloudy
2:53 PM 22.5 °F 12.4 °F 15.4 °F 74% 29.94 in 10.0 mi West 9.2 mph - N/A   Mostly Cloudy
3:12 PM 23.4 °F 12.8 °F 15.3 °F 71% 29.95 in 10.0 mi WNW 10.4 mph - N/A   Scattered Clouds
3:32 PM 23.0 °F 13.1 °F 15.3 °F 72% 29.96 in 10.0 mi WNW 9.2 mph - N/A   Clear
3:53 PM 23.0 °F 12.4 °F 15.8 °F 74% 29.96 in 10.0 mi WNW 10.4 mph - N/A   Clear
4:12 PM 23.4 °F 14.3 °F 16.7 °F 76% 29.97 in 10.0 mi WNW 8.1 mph - N/A   Clear
4:32 PM 24.4 °F 15.6 °F 17.4 °F 75% 29.98 in 10.0 mi WNW 8.1 mph - N/A   Clear
4:52 PM 23.4 °F 14.3 °F 16.7 °F 76% 29.99 in 10.0 mi West 8.1 mph - N/A   Scattered Clouds
5:13 PM 22.1 °F 12.8 °F 16.5 °F 79% 30.00 in 10.0 mi WNW 8.1 mph - N/A   Scattered Clouds
5:32 PM 21.0 °F 12.4 °F 16.0 °F 81% 30.01 in 10.0 mi West 6.9 mph - N/A   Mostly Cloudy
5:52 PM 19.4 °F 8.6 °F 15.3 °F 84% 30.02 in 10.0 mi West 9.2 mph - N/A   Scattered Clouds
6:13 PM 19.4 °F 8.6 °F 15.4 °F 85% 30.02 in 10.0 mi West 9.2 mph - N/A   Mostly Cloudy
6:32 PM 19.4 °F 7.9 °F 15.3 °F 84% 30.03 in 10.0 mi West 10.4 mph - N/A   Mostly Cloudy
6:52 PM 20.3 °F 9.0 °F 16.5 °F 85% 30.03 in 10.0 mi West 10.4 mph - N/A   Overcast
7:13 PM 19.9 °F 8.6 °F 16.2 °F 85% 30.04 in 10.0 mi West 10.4 mph - N/A   Overcast
7:33 PM 20.7 °F 8.2 °F 17.1 °F 86% 30.04 in 10.0 mi West 12.7 mph - N/A   Overcast
7:53 PM 20.8 °F 9.0 °F 17.2 °F 86% 30.05 in 10.0 mi West 11.5 mph - N/A   Overcast
8:13 PM 20.8 °F 9.0 °F 17.2 °F 86% 30.05 in 10.0 mi West 11.5 mph - N/A   Overcast
8:32 PM 21.0 °F 9.3 °F 17.4 °F 86% 30.06 in 10.0 mi West 11.5 mph - N/A   Overcast
8:52 PM 21.2 °F 10.9 °F 17.6 °F 86% 30.06 in 10.0 mi WNW 9.2 mph - N/A Snow Light Snow
9:13 PM 21.2 °F 10.1 °F 17.6 °F 86% 30.06 in 10.0 mi WNW 10.4 mph - N/A Snow Light Snow
9:32 PM 21.2 °F 10.9 °F 17.6 °F 86% 30.06 in 10.0 mi WNW 9.2 mph - N/A   Overcast
9:52 PM 21.2 °F 10.9 °F 17.6 °F 86% 30.08 in 10.0 mi West 9.2 mph - N/A Snow Light Snow
10:12 PM 21.4 °F 9.7 °F 18.1 °F 87% 30.08 in 10.0 mi West 11.5 mph - N/A   Overcast
10:32 PM 20.8 °F 9.7 °F 17.6 °F 87% 30.08 in 10.0 mi West 10.4 mph - N/A Snow Light Snow
11:13 PM 21.0 °F 9.9 °F 18.0 °F 88% 30.09 in 10.0 mi West 10.4 mph - N/A Snow Light Snow
11:32 PM 20.8 °F 10.4 °F 17.6 °F 87% 30.09 in 10.0 mi WNW 9.2 mph - N/A Snow Light Snow
11:52 PM 19.6 °F 10.6 °F 16.3 °F 87% 30.10 in 10.0 mi WNW 6.9 mph - N/A   Mostly Cloudy